Погода в Пижме

Россия / Нижегородская область     57°51′41″N   47°06′48″E
темп.,
°C
ветер,
м/с
пор.,
м/с
влажн.,
%
обл.,
%
осадки,
мм/ч
давл.,
гПа
погр.,
м
24 сентября, пт
пт2400:00+8юв41289100 0.3 1017819
03:00+8юв51295100 2.6 1015931
06:00+9юв51294100 1.7 1014775
09:00+8юв41095100 1.9 1013658
12:00+8юв4996100 0.2 1014720
15:00+9юв4994100 0.3 1013609
18:00+8вюв2992100 0.1 1013362
21:00+8юв3996100 0.1 1013506
25 сентября, сб
сб2500:00+8юв3898100 0.1 1013425
03:00+8юв3897100 0.3 1012443
06:00+7юв3897100 1.9 1012483
09:00+7юв3796100 3.0 1012439
12:00+8юв3695100 0.2 1012517
15:00+8юв2596100 0.3 1012393
18:00+7вюв2597100 0.0 1013273
21:00+7вюв2497100 0.0 1012170
26 сентября, вс
вс2600:00+6вюв1197100 0.0 101130
03:00+6в1297100 0.0 101186
06:00+6всв1296100 0.0 101194
09:00+7всв2389100 0.0 1010207
12:00+10св2375100 0.0 1011582
15:00+10св2474100 0.0 1011736
18:00+9ссв2689100 0.0 1012292
21:00+8ссв3795100 0.0 1012406
27 сентября, пн
пн2700:00+7св3797100 1.3 1013394
03:00+7св3896100 2.2 1014562
06:00+7св3896100 0.5 1015609
09:00+7всв4995100 0.9 1017702
12:00+7всв4891100 0.3 1020662
15:00+8всв4782100 0.3 1022995
18:00+5всв3890100 0.0 1025557
21:00+5св398935 0.0 1026421
28 сентября, вт
вт2800:00+2ссв269652 0.0 1027139
03:00+1св249472 0.0 102883
06:00+1ссв249392 0.0 102895
09:00+5ссв247296 0.0 1029384
12:00+9ссв235592 0.0 10281028
15:00+9с355249 0.0 10281452
18:00+6с377888 0.0 1028226
21:00+5с3789100 0.1 1029322